www.pogodaiklimat.ru

Погода и климат >> Архив погоды >> Мексика >> Campeche


ПОГОДА в Campeche

  • Прогноз погоды в Campeche
  • Монитор погоды в Campeche
  • Климат города

АРХИВ ПОГОДЫ в Campeche

Время (UTC), дата Ветер
(напр.,м/с)
 
Видим.   Явления Облачность Т
(С)
Тd
(С)
f
(%)
Тe
(С)
Тes
(С)
Комфортность P
(гПа)
Po
(гПа)
Тmin
(С)
Tmax
(С)
R
(мм)
R24
(мм)
S
(см)
12 17.04 ЮВ 1 10 км ясно +15.6 +14.6 94 +16 +16 1019.4 1018.9 +15.2 +28.1
15 17.04 В 2 10 км ясно +26.0 +19.3 67 +31 +43 очень
душно
1020.0 1019.5
18 17.04 СЗ 3 10 км 1/0
[Ci sp]
+29.6 +22.4 65 +39 +56 опасность
солнечного
удара
1017.3 1016.7 +15.2 +31.3
21 17.04 С 4 10 км 1/0
[Ci sp]
+28.4 +22.6 71 +38 +45 очень
душно
1014.8 1014.2
00 18.04 С 4 10 км ясно +26.2 +21.1 74 +33 +33 очень
душно
1014.2 1013.6 +15.2 +31.3
06 18.04 СВ 1 6000 м ясно +21.2 +18.5 85 +26 +26 душно 1015.4 1014.8 +15.2 +31.3
09 18.04 В 2 6000 м ясно +21.0 +18.6 86 +26 +26 душно 1014.2 1013.6
12 18.04 ЮВ 1 10 км ясно +19.6 +18.7 95 +23 +23 комфорт 1014.8 1014.2 +19.2 +31.3
15 18.04 В 2 10 км ясно +28.8 +22.4 68 +38 +49 очень
душно
1015.0 1014.4
18 18.04 В 4 10 км ясно +34.4 +26.2 62 +50 +65 опасность
перегрева
1013.5 1012.9 +19.2 +35.8
21 18.04 СЗ 3 10 км 4/4 570 м
[Cu med, cong]
+33.0 +27.3 72 +52 +58 опасность
перегрева
1011.1 1010.5
00 19.04 СЗ 4 10 км 1/1 600 м
[Cu hum]
+28.2 +25.2 84 +41 +41 опасность
перегрева
1012.4 1011.9 +19.2 +37.9
03 19.04 В 1 6000 м ясно +28.0 +22.6 73 +37 +37 очень
душно
1014.2 1013.6
06 19.04 ЮВ 1 6000 м ясно +24.6 +21.8 84 +31 +31 очень
душно
1014.4 1013.8 +19.2 +37.9
09 19.04 СВ 1 6000 м ясно +24.6 +22.4 88 +32 +32 очень
душно
1013.7 1013.1
12 19.04 В 1 10 км 3/3 210 м
[Sc]
+24.6 +23.2 92 +33 +33 очень
душно
1015.4 1014.8 +23.4 +37.9
15 19.04 В 2 10 км 4/4 570 м
[Cu hum]
+29.6 +25.6 79 +44 +50 опасность
перегрева
1017.0 1016.4
18 19.04 В 2 10 км 4/4 180 м
[Cu med, cong]
+34.2 +27.7 69 +54 +67 опасность
перегрева
1016.3 1015.7 +23.4 +35.0
21 19.04 З 2 10 км в посл. час морось 9/6 120 м
[Cb calv As op]
+26.9 +25.0 89 +39 +40 очень
душно
1014.6 1014.0 2
00 20.04 С 4 9000 м {дождь} 6/3 600 м
[Cu med, cong Ci ing]
+27.1 +23.8 82 +37 +37 очень
душно
1014.8 1014.3 6
03 20.04 С 4 5000 м слабый дождь {морось} 10/4 420 м
[Frnb Ac As]
+23.7 +23.0 96 +31 +31 очень
душно
1017.6 1017.1 20
06 20.04 В 3 6000 м морось 10/0
[As op]
+22.0 +21.1 95 +28 +28 душно 1018.0 1017.5 22
09 20.04 В 2 6000 м 6/6 210 м
[Sc]
+22.6 +21.8 95 +30 +30 очень
душно
1016.2 1015.6 0.4
12 20.04 СВ 1 10 км 8/0
[Ac trans]
+22.2 +21.3 95 +29 +29 очень
душно
1016.8 1016.3 0.4
15 20.04 В 3 10 км 8/0
[Ac und]
+27.7 +24.6 83 +39 +43 очень
душно
1017.9 1017.3
18 20.04 В 2 10 км 1/0
[Ac trans]
+32.7 +24.2 61 +45 +65 опасность
перегрева
1016.6 1016.0 +22.0 +33.1
00 21.04 С 5 10 км 3/1 600 м
[Cu med, cong Ac trans]
+28.0 +23.9 78 +39 +39 очень
душно
1014.8 1014.2 +22.0 +35.0
03 21.04 С 2 6000 м ясно +26.9 +22.7 78 +36 +36 очень
душно
1016.1 1015.5
06 21.04 СВ 2 6000 м ясно +25.0 +20.4 76 +31 +31 очень
душно
1016.2 1015.6 +22.0 +35.0
09 21.04 В 2 6000 м ясно +22.7 +19.6 83 +29 +29 очень
душно
1015.1 1014.5
12 21.04 штиль 0 10 км ясно +20.6 +19.4 93 +25 +25 комфорт 1014.6 1014.0 +20.0 +35.0
15 21.04 В 2 10 км 4/4 600 м
[Cu hum]
+29.2 +24.6 76 +41 +48 опасность
перегрева
1015.5 1014.9
18 21.04 В 2 10 км 6/6 660 м
[Cu med, cong]
+33.4 +26.6 68 +51 +60 опасность
перегрева
1013.7 1013.1 +20.0 +34.1
21 21.04 З 4 10 км 4/4 420 м
[Cu med, cong]
+31.2 +27.0 78 +49 +53 опасность
перегрева
1010.6 1010.1
00 22.04 СЗ 4 10 км ясно +28.1 +25.7 87 +42 +42 опасность
перегрева
1010.7 1010.1 +20.0 +37.5
03 22.04 В 1 6000 м 9/9 240 м
[Sc]
+27.7 +25.1 86 +40 +40 очень
душно
1012.3 1011.7
06 22.04 ЮВ 2 6000 м ясно +26.6 +23.6 84 +36 +36 очень
душно
1013.0 1012.5 +20.0 +37.5
09 22.04 ЮВ 2 6000 м ясно +24.6 +23.2 92 +33 +33 очень
душно
1011.6 1011.0
12 22.04 В 1 10 км ясно +24.2 +23.4 95 +32 +33 очень
душно
1012.6 1012.0 +23.9 +37.5
15 22.04 ЮВ 2 10 км ясно +31.8 +26.2 72 +48 +59 опасность
перегрева
1013.4 1012.8
18 22.04 ЮВ 2 10 км 4/4 900 м
[Cu hum]
+36.3 +27.8 62 +56 +70 опасность
перегрева
1012.2 1011.6 +23.9 +36.8
21 22.04 В 3 10 км 5/5 900 м
[Cu hum]
+32.2 +27.8 78 +52 +57 опасность
перегрева
1010.1 1009.6
00 23.04 СЗ 3 10 км 4/4 600 м
[Cu med, cong]
+29.0 +26.4 86 +44 +45 опасность
перегрева
1010.8 1010.2 +23.9 +38.4
03 23.04 штиль 0 6000 м 5/0
[Ac trans]
+26.8 +24.8 89 +38 +38 очень
душно
1013.0 1012.4 +23.9 +38.4
06 23.04 штиль 0 6000 м 5/0
[Ac trans]
+26.8 +24.8 89 +38 +38 очень
душно
1013.0 1012.4 +38.4
09 23.04 ЮВ 1 6000 м 1/1 180 м
[Sc]
+25.5 +23.4 88 +34 +34 очень
душно
1012.2 1011.7
12 23.04 ЮВ 1 10 км 6/0
[Ac und]
+24.2 +22.8 92 +32 +32 очень
душно
1013.5 1012.9 +24.0 +38.4
15 23.04 ЮВ 2 10 км ясно +31.3 +26.1 74 +47 +59 опасность
перегрева
1014.9 1014.3
18 23.04 ЮВ 1 10 км 1/1 1110 м
[Cu hum]
+33.5 +27.8 72 +54 +77 опасность
перегрева
1013.9 1013.3 +24.0 +36.6
21 23.04 З 4 10 км 1/1 1140 м
[Cu med, cong]
+31.7 +24.7 67 +45 +52 опасность
перегрева
1011.7 1011.1
00 24.04 С 5 10 км 5/5 300 м
[Cb calv]
+28.8 +25.6 83 +43 +43 опасность
перегрева
1012.8 1012.2 +24.0 +36.6
03 24.04 СВ 1 6000 м 5/5 540 м
[Sc]
+27.1 +23.2 79 +36 +36 очень
душно
1014.5 1013.9
06 24.04 С 3 6000 м ясно +25.6 +23.1 86 +34 +34 очень
душно
1014.2 1013.7 +24.0 +36.6

 

Местоположение метеостанции Campeche (Мексика): широта 19.85 долгота -90.55 высота над уровнем моря 5 м.

В архиве по умолчанию представлена погода в Campeche за последнюю неделю. Архивные данные за месяц целиком и за предыдущие месяцы, начиная с января 2011 года, Вы можете получить, выбрав интересующий диапазон дат из раскрывающегося списка и нажав кнопку "Ввод!".


*Определитесь, кто Вы:
робот инопланетянин человек

Внимание! Время в таблицах - всемирное. Для получения местного времени необходимо прибавить поправку, которая в Campeche равна -6 ч.

Смотрите также архив погоды в соседних городах и на ближайших метеорологических станциях:

Погода в Merida 2 (Мексика) (156 км)
Погода в Merida (Мексика) (157 км)
Погода в Progreso (Мексика) (187 км)
Погода в Valladolid (Мексика) (262 км)
Погода в Felipe Carrillo Puerto (Мексика) (278 км)
Погода в Chetumal (Мексика) (281 км)
Погода в Villahermosa (Мексика) (326 км)
Погода в Flores (Гватемала) (333 км)
Погода в Belize (Белиз) (350 км)
Погода в Sn. Cristobal Las Casas (Мексика) (409 км)

Пояснения к столбцам:

Ветер - указаны скорость ветра в м/с - средняя за 10 мин, порывы в срок и между сроками (в фигурных скобках) и направление, откуда дует ветер: С - северный, СВ - северо-восточный, В - восточный, ЮВ - юго-восточный, Ю - южный, ЮЗ - юго-западный, З - западный, СЗ - северо-западный.
Видимость - горизонтальная дальность видимости в метрах или километрах. При видимости от 1 до 10 км при отсутствии осадков обычно наблюдается дымка, при ухудшении видимости до 1 км и менее - туман. В сухую погоду видимость может ухудшаться дымом, пылью или мглою.
Явления - указаны атмосферные явления, наблюдавшиеся в срок или в последний час перед сроком; фигурными скобками обозначены явления, наблюдавшиеся между сроками (за 1-3 часа до срока); квадратными скобками обозначены град или гололедные отложения с указанием их диаметра в мм.
Облачность - указаны через наклонную черту общая и нижняя облачность в баллах и высота нижней границы облаков в метрах; квадратными скобками обозначены формы облаков: Ci - перистые, Cs - перисто-слоистые, Cc - перисто-кучевые, Ac - высококучевые, As - высокослоистые, Sc - слоисто-кучевые, Ns - слоисто-дождевые, Cu - кучевые, Cb - кучево-дождевые. Подробнее классификацию облаков см. в Атласе облаков (PDF).
T - Температура воздуха - температура, измеренная на высоте 2 м над землей.
Td - Температура точки росы - температура, при понижении до которой содержащийся в воздухе водяной пар достигнет насыщения.
f - Относительная влажность воздуха - влажноcть воздуха, измеренная на высоте 2 м над землей.
Te - Эффективная температура - температура, которую ощущает одетый по сезону человек в тени. Характеристика душности погоды. При расчете учитывается влияние влажности воздуха и скорости ветра на теплоощущения человека.
Tes - Эффективная температура на солнце - температура, которую ощущает человек, с поправкой на солнечный нагрев. Характеристика знойности погоды. Зависит от высоты солнца над горизонтом, облачности и скорости ветра. Ночью, в пасмурную погоду, а также при ветре 12 м/с и более поправка равна нулю.
P - Атмосферное давление - приведенное к уровню моря атмосферное давление.
Po - Атмосферное давление - измеренное на уровне метеостанции атмосферное давление.
Tmin - Минимальная температура - минимум температуры воздуха на высоте 2 м над землей.
Tmax - Максимальная температура - максимум температуры воздуха на высоте 2 м над землей.
R - Количество осадков - Количество выпавших осадков за период времени, мм. При наведении курсора мыши на число - период времени, за который выпало указанное количество осадков.
R24 - Количество осадков - Количество выпавших осадков за 24 часа, мм.
S - Снежный покров - Высота снежного покрова, см. При наведении курсора мыши на число - состояние снежного покрова и степень покрытия местности в баллах.